Wind_Speed
32 33 34 35 36 37 38 39 40 40 41 43 45 46 48 49 52 54 57 60 60 59 56 52 47 41 36 33 33 34 37 40 43 46 49 52 54 51 48 47 48 50 49 48 48 47 47 45 44 44 43 44 43 43 47 47 45 45 42 39 40 43 46 46 45 45 45 46 47 45 43 42 36 31 30 31 31 29 27 26 25 24 23 22 22 20 19 18
33 34 35 36 37 38 39 40 41 42 43 45 47 48 50 52 54 57 60 62 61 59 55 51 45 39 33 32 32 33 36 40 43 45 48 50 53 52 49 48 49 51 51 50 51 49 49 48 45 45 44 44 43 40 42 47 47 46 46 41 38 40 44 46 45 46 46 45 47 46 44 43 37 33 32 32 32 31 28 26 24 23 22 21 21 20 18 17
33 35 36 37 38 39 40 41 42 43 45 47 49 50 52 54 57 60 62 63 61 58 53 48 42 35 31 30 31 32 34 38 42 44 47 49 51 52 49 49 50 52 53 52 53 52 50 49 48 47 46 44 44 42 40 44 47 46 47 43 38 38 42 45 44 45 46 46 48 46 45 44 38 34 34 34 34 33 28 26 24 21 21 21 20 19 18 17
34 35 37 38 39 40 41 42 44 45 47 49 51 52 54 56 60 62 64 63 60 55 50 44 38 32 29 27 28 30 31 35 40 43 45 48 50 51 50 50 50 53 55 54 54 54 52 50 49 48 49 47 45 45 41 40 44 46 46 43 39 39 41 44 44 46 46 46 47 45 45 44 37 35 35 36 36 33 28 26 25 22 22 21 20 19 18 17
34 35 37 39 40 41 42 43 45 47 49 50 52 54 56 59 62 64 65 62 58 53 47 40 34 29 26 26 26 27 28 32 37 41 44 47 48 49 49 50 51 53 55 56 55 55 54 51 51 49 50 49 46 46 42 39 41 44 46 41 37 39 42 43 44 45 44 46 48 44 45 44 38 36 37 37 36 33 30 28 25 23 22 21 20 19 17 16
34 36 37 39 40 42 43 45 46 48 50 52 54 56 58 61 64 66 65 61 56 50 43 36 30 26 24 24 25 26 26 29 33 38 42 45 47 48 49 51 52 53 55 57 56 56 55 53 51 50 49 49 47 46 43 40 40 42 46 43 38 40 43 42 43 45 42 45 49 46 44 44 39 37 38 38 36 32 31 29 25 23 23 22 21 19 18 16
34 36 38 39 41 42 44 46 47 49 51 53 55 57 60 63 66 66 64 59 53 46 38 32 28 24 23 24 23 24 25 27 31 36 40 43 46 46 48 51 53 54 55 56 56 56 56 54 52 51 50 49 48 47 44 42 41 40 44 46 42 41 43 41 42 45 42 44 50 48 44 43 41 38 38 39 37 32 29 29 25 24 25 24 23 21 19 17
34 37 39 40 41 43 45 47 48 50 52 54 56 58 61 65 67 66 63 57 51 43 35 29 26 23 23 23 22 22 22 25 29 34 38 41 45 45 46 50 53 55 54 55 56 56 56 55 53 52 50 49 48 48 47 44 41 39 41 46 45 42 42 40 41 44 43 45 49 48 45 43 42 40 39 41 40 35 31 30 27 27 28 27 25 24 21 18
35 37 39 40 42 44 46 47 49 51 53 55 57 60 63 66 67 66 62 55 48 40 33 27 25 23 23 23 22 20 20 24 28 32 37 40 43 45 45 49 53 55 54 54 55 55 55 56 55 53 51 49 49 48 47 45 41 38 38 41 44 43 41 41 42 42 42 45 48 46 44 44 43 41 41 41 42 39 35 34 32 30 30 28 27 25 22 19
35 37 39 41 43 44 46 48 50 52 54 56 58 61 64 67 68 65 60 54 46 39 32 27 24 23 23 23 21 19 19 22 26 30 36 39 42 44 45 48 53 55 54 53 53 55 55 56 55 53 52 50 50 50 48 46 42 39 37 36 41 43 43 43 42 42 42 43 45 44 43 43 43 43 42 41 41 40 38 36 33 30 29 29 27 26 25 21
35 37 39 41 43 45 47 48 50 53 55 57 59 62 66 68 67 64 58 52 44 38 31 27 24 24 24 23 21 19 19 21 24 28 34 39 41 44 45 47 52 55 54 52 52 54 55 55 55 54 53 52 50 51 49 45 42 41 39 36 39 43 43 42 41 42 42 41 42 43 42 42 43 43 42 41 41 41 38 35 31 28 30 31 28 27 26 22
35 37 39 41 43 45 47 49 51 53 55 57 60 63 67 68 67 63 57 50 43 37 32 27 25 25 25 24 21 19 19 20 24 27 32 39 41 43 44 46 51 54 53 52 51 53 54 55 55 55 54 52 51 51 49 45 39 39 40 38 39 41 41 41 40 41 41 40 40 40 40 41 44 43 42 41 41 41 38 34 31 26 28 31 29 27 24 21
35 37 39 41 43 45 47 49 51 53 56 58 60 64 67 68 66 61 55 49 42 37 32 27 25 25 24 22 21 18 17 20 24 26 31 38 41 42 44 46 50 54 53 52 51 52 53 54 55 55 54 52 51 50 49 46 41 39 41 40 40 39 39 41 40 38 37 36 35 35 35 38 43 43 42 41 41 41 39 36 31 24 25 28 28 26 24 24
34 36 39 41 43 45 47 49 51 54 56 58 61 65 67 67 65 60 54 48 42 37 32 28 25 23 21 20 18 15 15 18 22 26 30 38 42 42 44 46 50 53 52 51 50 51 52 53 54 54 54 53 52 51 49 46 42 41 40 40 42 41 40 41 41 38 34 31 31 31 34 38 41 43 42 41 41 40 39 37 32 25 23 26 27 26 26 25
34 36 39 41 43 45 47 49 52 54 56 58 62 65 67 67 63 58 52 46 42 37 32 28 25 23 20 17 14 11 11 16 20 24 29 37 42 43 44 46 49 52 51 49 49 50 51 52 53 53 54 54 53 51 50 47 44 43 40 39 42 43 41 41 41 40 34 31 29 28 33 39 41 42 42 41 40 39 39 39 35 28 22 22 25 26 25 25
34 36 39 41 43 45 47 49 52 54 56 58 62 65 67 66 62 56 50 45 41 37 32 28 26 23 18 14 10 8 9 14 18 22 29 37 42 43 44 46 48 51 50 48 49 50 50 50 51 52 53 54 54 53 51 48 46 44 41 39 40 43 43 41 39 39 36 34 31 28 30 37 40 41 41 40 40 39 38 38 36 32 25 21 23 24 23 25
33 36 38 41 43 45 47 49 52 54 56 58 62 65 66 64 60 54 49 44 39 35 30 27 27 21 15 11 8 7 8 11 15 20 29 38 41 42 44 45 47 49 49 48 49 49 49 49 49 51 52 53 53 54 52 50 48 45 42 40 38 39 41 40 38 37 36 35 34 30 29 34 39 41 40 39 38 38 37 37 36 33 28 23 21 22 21 22
33 35 38 41 43 45 47 49 51 53 55 58 62 65 65 63 58 52 47 43 38 33 28 26 26 20 13 8 5 6 8 10 12 19 30 38 41 42 44 45 46 48 47 48 49 49 48 47 48 49 51 53 53 53 52 50 47 44 41 40 38 37 39 39 37 36 35 34 32 31 30 32 37 40 40 39 38 38 36 35 35 33 30 25 21 20 19 19
32 35 38 40 43 45 47 49 51 53 55 58 62 64 64 61 56 51 45 41 37 32 28 26 25 19 11 4 2 5 8 9 11 20 32 38 40 41 43 45 46 46 46 47 48 48 47 46 46 48 49 51 51 51 50 47 44 42 39 38 37 35 35 36 36 36 36 34 32 30 29 31 35 38 39 39 38 38 36 35 34 33 32 29 24 20 19 20
31 34 37 40 42 44 46 49 51 53 55 58 62 64 63 59 54 49 43 39 35 31 28 27 24 17 8 5 4 5 8 9 13 23 33 37 39 40 43 44 45 45 45 45 46 46 46 44 44 45 46 47 49 49 48 44 41 41 39 36 35 34 32 32 32 33 34 35 32 30 29 30 33 36 37 37 38 37 36 34 33 33 32 31 27 24 21 21
30 33 36 39 42 44 46 48 50 52 54 57 61 63 62 57 52 46 42 39 35 30 28 27 22 15 9 7 5 7 9 9 16 27 33 36 37 39 42 43 43 44 44 44 44 44 44 42 41 42 44 45 46 47 46 43 41 41 39 36 35 34 32 30 29 28 30 31 29 28 28 28 31 34 34 35 36 36 35 34 33 32 31 30 29 26 24 22
29 32 36 38 41 43 45 47 49 51 53 57 60 61 60 56 51 46 41 38 34 30 28 27 21 14 10 8 7 9 10 12 20 29 33 36 37 38 41 42 42 43 43 43 43 43 43 41 39 40 41 42 43 44 44 42 40 40 39 37 35 33 32 31 30 28 27 27 25 24 26 27 30 33 33 33 34 34 35 34 33 31 29 29 29 28 26 24
29 31 35 37 40 42 44 47 49 51 53 56 59 60 59 55 50 45 40 37 34 29 27 27 22 15 11 10 10 11 12 16 23 29 32 35 36 37 40 41 41 41 42 42 41 41 42 41 38 38 39 40 41 41 41 40 38 36 36 36 34 31 31 31 30 29 27 26 25 24 24 26 29 32 33 34 33 33 33 33 32 31 30 29 29 29 27 25
27 31 34 37 39 41 44 46 48 50 52 55 58 59 58 53 48 43 38 35 33 29 26 26 23 18 14 12 12 13 15 19 24 29 31 34 35 36 38 39 39 40 41 41 40 39 39 39 37 36 37 38 38 38 38 37 35 33 32 31 31 29 29 28 27 26 26 26 25 24 24 24 26 28 31 33 33 33 33 33 32 31 31 30 29 29 28 26
26 30 33 36 38 40 43 45 47 49 51 54 57 58 56 52 46 41 36 34 32 29 28 27 24 21 18 16 16 16 18 20 24 28 30 33 33 35 37 38 38 39 40 40 40 39 38 37 36 35 35 35 35 35 35 33 31 30 29 28 28 27 26 26 25 24 24 25 25 26 25 23 23 24 27 29 31 32 33 33 33 33 32 30 30 29 29 28
25 28 32 35 37 39 42 44 46 48 50 53 56 56 55 51 45 39 34 31 30 29 29 28 25 23 21 20 19 19 20 23 26 27 28 31 32 33 35 36 37 38 39 40 40 39 37 36 35 34 33 33 33 32 32 30 28 28 28 27 27 27 26 25 24 24 25 24 25 26 26 24 23 23 24 26 29 31 32 32 33 33 32 31 30 30 30 29
24 27 30 33 36 38 41 43 45 47 49 52 54 55 54 50 44 38 32 29 29 29 30 29 26 24 22 22 22 22 24 26 27 26 28 31 32 33 33 34 36 37 38 39 40 39 37 35 35 33 32 31 31 31 30 28 27 27 27 25 24 25 25 24 23 24 24 23 24 26 27 25 25 24 23 24 25 27 29 31 33 33 32 31 31 30 30 29
23 26 29 32 34 37 39 42 44 46 48 50 53 54 53 49 44 37 31 29 29 29 29 28 27 25 22 23 23 24 25 23 24 26 29 32 32 33 32 33 34 35 37 37 38 38 36 35 34 32 31 29 28 29 29 28 27 27 27 26 24 23 23 22 22 23 23 23 24 25 26 26 26 25 24 23 23 23 25 29 31 32 32 32 30 29 29 28
22 24 28 30 33 36 38 41 43 45 47 49 52 53 51 49 44 35 30 30 30 29 29 28 26 25 23 23 22 22 21 21 23 27 29 31 32 33 33 33 33 34 37 36 36 37 36 34 33 31 29 27 26 27 27 28 27 26 27 26 24 23 22 22 22 22 22 23 23 23 24 26 25 25 24 24 23 23 23 25 27 30 31 31 29 28 27 27
20 23 26 29 32 34 37 40 42 44 45 47 50 52 51 49 42 33 30 31 30 28 28 26 24 25 24 22 21 20 20 21 24 26 29 30 30 31 32 33 34 34 37 37 36 36 36 34 32 32 30 27 26 28 28 28 27 25 25 25 23 22 21 21 21 21 21 22 22 22 23 24 23 22 23 23 23 22 22 22 24 26 28 29 28 26 26 26
19 21 24 28 30 33 36 38 41 43 44 46 49 50 51 48 41 34 32 31 29 26 26 25 24 24 24 22 21 22 22 21 22 25 28 29 29 31 31 32 35 35 37 38 36 36 36 35 33 34 33 28 26 27 27 27 26 25 23 23 22 22 20 20 20 20 21 20 20 20 20 21 20 20 22 22 21 20 20 20 21 22 23 25 25 25 25 25
18 19 23 26 29 31 34 37 40 41 43 45 47 49 50 46 41 37 33 30 28 25 24 24 23 23 23 22 22 22 22 20 21 24 27 27 28 30 30 31 35 37 38 39 37 36 36 35 33 35 35 29 24 25 25 26 26 25 23 21 21 21 20 19 19 19 19 18 17 18 18 18 18 18 19 19 18 17 17 18 17 17 19 20 20 20 20 20
16 18 21 24 27 30 32 35 38 40 42 44 46 48 48 45 43 40 34 29 27 23 23 23 22 22 22 22 21 21 21 20 21 23 24 24 26 29 29 30 34 35 37 39 38 37 38 36 34 34 33 29 25 24 22 23 24 23 22 21 20 20 19 18 18 17 17 16 16 16 16 16 16 17 18 17 16 15 15 16 16 16 17 17 16 15 15 15
15 16 19 22 25 28 31 33 36 39 41 43 45 47 46 45 46 42 34 29 25 22 22 22 21 21 21 21 20 20 20 19 20 21 21 22 25 27 28 31 34 35 35 37 38 37 37 38 36 33 31 29 27 24 21 21 21 21 21 20 19 19 17 15 15 14 13 13 14 14 15 15 15 16 16 16 16 16 17 19 20 20 18 17 16 16 15 15
14 15 17 20 23 26 29 32 35 37 40 41 43 45 45 46 47 42 35 29 25 22 20 20 20 20 19 18 18 19 18 17 19 20 20 22 24 25 28 31 35 36 34 35 36 36 35 36 35 32 30 28 26 25 23 21 20 19 19 19 19 19 18 16 15 13 13 13 14 15 15 14 14 15 16 17 18 18 20 24 25 21 16 13 14 15 15 15
13 13 15 18 21 24 27 30 33 36 38 41 42 43 44 46 46 43 37 30 25 22 20 19 20 20 18 17 18 18 17 16 17 18 20 22 23 24 28 32 34 35 34 33 34 34 34 34 34 32 30 28 26 25 24 22 21 19 18 19 19 19 18 18 17 16 16 16 16 16 15 15 16 17 17 18 19 20 22 27 27 20 12 9 11 14 15 16
12 12 14 16 19 22 25 28 31 34 37 39 40 41 43 45 46 43 39 32 26 23 20 19 20 19 18 17 17 17 17 16 16 18 20 22 24 26 29 32 34 34 34 32 31 31 32 32 32 31 29 28 26 25 24 23 21 20 18 18 19 18 17 16 16 17 17 16 16 16 16 16 17 17 17 18 19 20 22 26 27 21 13 10 11 13 15 15
11 11 12 14 17 20 23 26 29 32 35 38 39 40 42 44 45 44 40 34 28 24 22 20 19 19 18 17 17 17 17 17 17 18 19 21 24 28 30 32 34 34 34 33 31 30 30 30 30 29 28 27 25 25 24 23 22 20 19 18 18 18 17 17 16 16 16 15 15 15 15 16 16 16 17 17 18 19 19 21 23 20 16 13 12 13 15 16
10 10 10 12 15 18 21 23 26 29 32 36 38 39 40 43 44 43 41 36 31 26 23 21 19 18 18 18 17 17 18 18 18 19 20 22 25 28 31 32 34 34 34 33 32 31 30 29 29 29 27 26 26 25 24 23 22 21 20 19 18 17 17 17 15 14 14 14 13 13 15 15 16 16 17 17 17 17 16 17 17 17 15 14 13 14 15 16
9 9 9 10 13 16 19 21 24 27 30 34 36 38 39 41 42 43 41 38 33 28 25 22 20 18 18 18 18 17 18 18 19 20 21 23 26 29 31 32 33 33 33 33 32 31 29 27 28 28 28 27 26 25 24 23 22 21 20 19 18 17 16 15 14 13 12 12 12 13 14 15 15 15 16 16 16 16 16 16 15 15 15 14 14 14 15 15
9 8 8 8 11 14 16 19 22 24 27 31 34 36 38 39 41 42 41 39 36 31 27 24 22 20 19 19 19 19 19 19 21 22 23 24 26 28 31 32 32 32 32 33 32 31 29 27 26 27 27 26 25 24 24 23 23 22 21 19 18 18 16 15 14 13 12 11 12 12 13 14 15 15 16 16 16 16 16 16 15 15 15 15 15 15 15 15
10 8 8 7 9 11 14 17 19 22 25 28 31 34 36 37 39 41 41 40 37 33 29 27 24 23 22 21 21 20 20 21 23 24 24 26 26 27 29 30 31 31 31 31 31 30 29 27 27 27 26 25 24 24 23 23 22 22 21 20 18 17 17 15 14 13 13 12 13 13 13 14 15 15 15 16 16 16 16 16 15 15 14 14 14 14 13 13
10 8 7 7 7 9 11 14 17 19 22 25 29 32 34 36 37 39 40 40 38 35 31 29 27 25 24 24 23 23 23 23 25 26 25 26 26 27 28 28 29 30 30 30 30 29 29 28 26 25 24 23 22 22 21 21 21 20 20 19 17 17 17 15 14 14 13 13 13 13 14 14 15 15 15 15 15 15 15 15 14 14 14 13 13 13 13 14
10 9 8 7 6 7 9 12 15 17 19 22 26 29 32 34 35 37 38 39 39 37 32 29 28 27 26 25 25 25 25 25 26 27 26 26 27 27 27 27 28 28 28 29 29 28 28 27 25 23 22 22 21 21 20 19 19 18 17 17 16 16 16 15 14 14 14 13 13 13 13 14 14 15 15 15 15 15 14 14 14 14 13 13 13 13 14 14
11 10 9 7 6 5 6 9 12 14 17 19 23 26 29 31 33 35 36 37 38 38 34 30 28 27 26 26 26 27 27 26 27 27 26 27 27 26 26 27 27 27 27 27 27 27 26 25 24 23 21 20 19 19 18 17 17 17 16 16 16 15 15 15 14 14 14 13 13 13 14 14 14 14 14 14 14 14 14 13 13 13 13 13 13 13 14 14
12 12 10 8 6 5 5 6 8 12 14 16 19 23 26 29 31 33 34 35 36 37 36 31 28 26 26 26 26 27 28 28 28 27 27 27 26 26 26 26 26 25 25 25 25 25 24 23 23 22 20 18 17 17 18 17 16 16 16 15 15 15 15 14 14 13 14 13 13 14 14 13 13 13 13 14 14 14 14 13 13 13 13 13 13 13 13 14
12 12 12 10 8 6 4 4 6 9 11 14 16 19 22 25 28 30 32 33 34 36 36 34 29 26 25 26 26 27 28 28 28 28 27 26 26 25 25 25 25 24 23 23 23 23 22 22 22 21 20 19 19 18 18 17 16 16 15 14 14 13 13 13 13 13 13 13 13 14 14 14 14 14 15 15 14 14 13 13 13 13 13 13 13 13 14 14
12 13 14 12 10 7 6 4 4 6 8 11 13 16 19 22 24 27 29 31 32 33 34 34 32 28 25 24 26 27 27 28 28 27 26 26 25 25 24 24 24 23 22 22 22 21 20 20 20 19 18 18 18 17 17 17 16 15 15 14 13 13 13 13 14 13 13 13 13 14 14 15 15 15 15 14 13 13 13 13 13 13 13 13 13 14 14 15
13 13 14 14 12 9 7 5 4 3 5 8 10 13 15 19 21 24 26 28 30 31 32 33 33 31 27 24 24 25 26 26 26 25 25 25 24 24 24 24 23 22 21 21 21 20 19 17 17 16 16 15 15 15 15 15 15 15 14 14 13 13 13 13 13 13 13 13 14 13 13 14 15 13 12 11 11 12 13 13 13 13 13 13 14 15 15 16
15 14 15 16 14 12 9 7 5 3 3 5 7 9 12 15 18 20 23 25 27 29 30 31 32 32 30 26 23 23 23 24 24 24 23 23 23 23 24 23 23 22 21 20 20 20 18 16 15 15 14 13 12 13 13 13 13 13 13 13 12 12 12 12 12 12 12 12 13 11 11 13 12 10 10 11 11 12 13 13 13 13 13 14 15 15 16 17
16 15 15 17 16 14 12 10 8 5 3 3 4 6 8 11 14 17 19 21 24 26 28 29 29 30 31 29 26 23 22 22 22 22 22 22 22 23 23 23 22 22 21 20 20 20 18 16 15 14 13 12 11 11 12 11 11 11 11 11 11 11 11 11 11 11 11 11 11 10 12 12 9 8 10 11 11 12 13 13 13 13 14 15 16 17 19 20
18 17 17 18 18 17 14 12 10 8 5 3 1 3 5 7 10 13 15 18 20 22 24 26 27 28 29 29 29 26 23 21 20 20 20 21 21 22 22 21 21 21 21 20 20 20 18 17 15 14 13 12 11 11 11 11 11 11 11 11 11 11 11 10 10 11 11 10 10 11 11 10 9 9 10 10 11 13 14 15 16 16 18 18 19 20 21 21
Wind_Direction
345 345 344 344 343 343 342 342 341 340 338 337 336 334 334 333 332 331 330 328 327 326 325 322 317 309 297 283 269 255 244 237 233 229 226 224 224 223 219 216 213 211 210 207 205 208 210 212 211 213 211 206 203 201 204 204 201 199 199 201 199 199 200 201 201 200 200 200 200 201 198 198 200 202 205 207 198 195 207 207 206 206 200 198 195 194 195 197
346 345 344 344 344 343 343 343 341 340 339 338 337 335 335 334 333 332 331 329 328 327 326 323 317 307 295 281 268 256 244 237 233 229 224 223 222 221 217 214 211 209 208 207 206 206 208 210 208 211 213 211 205 199 202 203 199 199 200 199 198 199 200 199 201 201 200 200 201 200 197 197 199 201 202 201 194 192 204 208 206 207 200 197 196 194 196 200
346 345 344 344 344 344 343 343 342 341 340 339 337 336 335 335 334 333 331 330 329 329 327 323 316 305 294 280 269 258 245 237 233 229 224 221 220 218 215 211 210 208 207 206 206 206 206 208 207 208 211 212 207 198 198 202 200 202 202 199 198 201 201 198 199 200 200 201 201 200 197 197 197 198 197 194 191 191 201 207 203 203 199 197 197 196 197 201
346 345 344 345 345 344 344 343 342 341 340 339 338 337 336 336 335 333 332 331 331 330 328 323 315 304 293 280 270 261 248 238 233 229 224 220 219 217 212 209 208 208 206 206 206 206 206 206 206 206 208 210 208 200 197 199 200 203 203 201 201 204 202 199 200 199 199 200 199 199 198 198 197 196 194 191 190 190 198 207 203 198 198 198 197 196 198 200
345 344 344 345 344 344 344 343 342 342 341 339 338 337 337 336 335 334 333 332 332 332 329 323 313 303 292 281 272 264 252 240 233 229 223 219 217 215 211 206 206 207 206 206 205 206 207 207 206 206 207 208 207 203 199 197 199 202 203 201 202 204 202 200 200 198 200 201 199 198 199 199 197 194 192 190 190 189 195 204 203 199 198 199 198 196 197 198
345 344 344 344 344 344 343 343 343 342 341 340 339 338 338 337 336 335 333 334 334 333 329 322 312 302 293 284 275 266 255 242 234 229 223 219 216 213 209 203 203 205 205 205 205 206 207 207 206 206 206 206 206 204 200 196 197 202 202 199 202 205 201 201 200 196 199 202 200 199 198 199 198 194 191 190 189 189 196 201 198 196 199 202 200 195 194 197
344 344 344 344 344 344 343 343 343 342 341 340 339 339 338 338 337 335 335 335 336 334 329 321 311 302 296 290 281 270 257 244 233 227 222 218 215 212 208 202 201 203 204 205 205 205 206 207 206 206 206 204 204 203 201 197 196 200 202 200 204 207 202 201 201 198 199 200 201 201 199 199 198 195 192 192 190 188 196 200 198 198 199 202 200 194 194 199
344 344 344 344 344 344 343 343 343 343 342 341 340 340 339 338 337 336 336 337 338 335 329 321 310 302 298 294 286 273 259 244 233 225 220 216 213 210 207 201 199 201 203 204 204 204 206 207 207 206 205 204 203 203 203 199 195 196 202 202 204 208 204 202 202 200 200 199 200 202 200 199 198 197 195 194 192 190 192 195 200 205 203 203 199 195 197 204
344 344 344 344 344 344 343 343 344 343 342 341 341 340 340 339 338 337 338 339 339 336 329 321 309 302 299 296 289 276 260 244 233 224 218 213 210 208 205 200 197 200 202 203 203 203 204 206 207 205 205 205 203 204 204 200 194 191 197 202 203 207 204 203 205 202 201 201 201 202 201 200 200 199 199 197 195 193 192 193 200 207 206 204 202 200 200 206
343 344 344 344 344 344 343 343 344 344 343 342 342 341 341 340 339 338 339 340 340 336 330 321 310 303 299 297 291 278 260 244 233 224 216 211 208 206 203 198 196 198 201 201 201 202 203 205 206 206 206 206 203 203 203 199 195 191 192 196 200 205 203 202 205 201 200 202 201 201 201 201 201 201 201 199 197 196 195 196 201 207 207 207 206 206 207 208
342 343 344 344 344 344 343 344 345 345 343 343 343 342 341 341 340 340 341 342 341 336 330 322 313 305 300 297 292 279 261 242 231 223 213 208 206 203 201 197 195 196 199 200 200 200 201 203 205 206 207 207 204 202 203 200 197 196 194 194 198 204 203 200 202 200 198 200 200 201 203 204 203 203 203 200 199 197 197 199 202 207 209 208 207 209 211 211
341 343 344 344 344 344 343 345 346 345 344 344 344 343 342 342 341 341 342 343 341 337 331 324 315 307 302 298 291 279 260 239 227 221 211 204 203 201 198 196 194 195 198 198 198 199 200 201 203 206 207 206 204 202 201 200 198 201 199 198 200 203 204 201 199 199 198 198 199 203 206 207 204 203 204 202 200 200 199 201 204 207 208 207 208 210 211 214
340 342 343 344 345 344 344 346 347 346 345 345 345 344 343 343 342 342 343 343 342 338 332 326 317 309 303 297 290 279 258 237 224 217 208 201 200 199 195 193 193 194 196 196 197 197 198 200 201 205 206 206 206 203 200 198 198 203 203 201 202 202 205 203 198 197 200 202 203 206 208 207 203 203 203 202 202 203 202 203 207 209 207 208 209 208 210 215
339 342 344 345 345 345 345 347 348 347 346 346 346 345 344 344 343 344 345 344 343 339 334 330 322 313 306 297 290 278 251 231 221 214 205 197 196 196 194 191 192 193 195 195 195 196 197 198 199 203 205 206 207 204 201 199 198 203 204 203 203 202 203 203 200 198 200 203 204 205 206 202 200 202 203 203 203 205 205 205 207 206 205 208 210 210 212 216
339 342 344 345 345 345 346 348 349 348 347 347 347 346 346 345 344 345 346 345 343 341 337 336 331 321 312 300 288 272 240 224 218 210 201 194 192 193 192 190 191 192 193 192 193 194 196 197 197 200 203 205 206 205 204 201 199 204 204 202 203 202 201 202 203 204 204 204 202 202 203 200 199 200 202 204 205 207 207 207 209 205 203 206 209 212 214 217
338 342 344 346 346 346 347 349 350 349 348 348 348 347 347 346 346 347 348 347 344 343 341 341 339 328 315 300 281 257 227 216 214 206 196 190 189 189 189 188 190 191 191 191 191 193 195 196 196 198 201 204 205 205 206 203 201 204 205 202 202 202 201 200 202 206 209 210 207 205 203 200 200 200 202 205 206 208 208 209 211 209 208 208 209 212 213 218
338 342 345 347 347 347 349 350 350 350 350 350 349 349 348 347 348 348 349 348 346 345 344 343 341 335 320 301 271 237 216 210 209 200 190 187 185 185 186 186 188 190 190 189 190 191 193 195 196 197 199 202 205 206 207 206 202 203 205 204 202 202 203 202 201 204 208 210 210 210 208 204 202 202 204 205 207 209 209 210 212 212 212 213 211 212 214 218
339 343 346 347 348 348 350 351 352 351 351 351 351 350 349 349 349 350 351 350 348 347 346 344 344 343 334 311 247 214 203 201 199 190 184 182 182 182 182 183 186 188 189 188 189 190 191 194 195 196 197 200 204 207 209 207 203 202 203 203 204 202 202 204 204 204 206 207 208 211 212 211 206 204 204 206 208 209 209 210 212 213 213 213 212 209 214 218
339 343 346 348 349 349 351 352 353 352 353 352 352 351 351 351 351 352 352 352 350 349 350 350 352 352 349 356 176 191 186 185 185 180 178 177 178 178 179 181 184 187 188 188 188 188 190 193 194 195 197 200 203 207 209 209 207 206 205 204 206 206 204 205 205 204 205 208 209 211 211 211 208 205 204 206 208 209 209 210 211 213 213 213 212 208 210 218
339 344 347 349 350 350 352 353 354 354 354 354 353 353 352 353 353 354 354 353 352 354 357 359 2 6 20 66 104 157 163 167 172 171 171 172 173 174 176 178 182 186 187 186 186 187 189 191 193 194 196 199 202 206 209 210 209 209 210 209 208 209 209 209 206 204 205 208 212 214 213 210 207 206 205 206 208 209 210 211 211 213 214 214 215 214 212 216
340 344 347 350 351 351 353 355 355 355 355 355 354 354 354 355 355 355 356 355 357 1 6 8 10 20 49 75 89 132 146 152 161 163 165 167 169 171 173 176 180 184 184 183 184 185 187 189 191 193 193 196 200 205 207 208 207 208 210 211 210 209 211 211 210 207 206 208 210 211 211 211 209 208 208 208 208 209 211 212 213 215 216 216 217 220 220 219
340 345 348 350 352 352 354 356 357 357 357 356 356 356 356 356 357 357 358 359 2 7 13 17 20 31 55 72 97 124 132 141 153 157 159 162 165 168 170 173 178 181 182 181 181 183 185 186 188 191 191 193 197 202 205 207 208 208 208 208 209 209 210 210 209 208 207 208 208 208 207 210 211 212 212 212 211 211 212 214 215 216 218 219 220 222 224 226
341 346 349 351 353 353 355 357 358 358 358 358 357 357 358 358 359 360 1 3 8 13 18 23 28 38 57 77 103 116 122 136 147 152 155 159 162 165 168 171 175 178 179 178 179 181 183 184 185 188 190 191 194 199 204 206 206 208 209 209 207 207 208 209 210 209 209 209 210 211 208 207 210 213 215 215 214 213 215 216 217 218 219 221 224 225 228 231
342 347 349 352 354 354 356 358 359 360 360 359 359 359 360 0 1 3 5 8 14 19 23 28 35 46 61 80 99 110 117 132 143 147 152 155 158 162 165 168 172 175 176 176 176 179 183 183 183 185 188 190 192 196 201 205 205 204 207 209 206 205 206 206 208 209 212 212 212 213 212 209 209 211 214 216 216 216 216 218 220 222 222 224 227 230 233 235
342 347 350 353 355 355 358 360 1 1 1 1 1 1 2 3 4 7 8 12 21 26 30 34 42 52 66 81 95 104 113 126 137 143 148 151 155 160 163 166 169 172 174 174 174 175 179 182 182 183 186 188 190 193 197 201 202 201 202 203 202 201 202 202 202 203 207 210 212 214 215 213 212 213 214 216 218 218 218 219 221 224 227 229 231 233 236 238
342 348 351 353 356 357 359 1 3 3 2 2 3 3 4 5 7 10 12 17 27 35 39 43 49 59 73 86 94 101 110 121 130 136 145 149 152 157 160 164 167 170 172 172 173 173 174 178 180 181 183 185 187 189 193 195 194 195 197 198 197 196 196 197 197 198 202 205 209 213 214 213 214 216 217 218 219 221 221 222 224 227 230 233 235 237 239 242
343 349 351 354 357 358 0 3 4 4 4 4 4 4 6 8 9 12 16 23 33 41 47 50 55 64 76 86 93 102 108 118 128 136 146 149 150 153 158 163 166 169 171 171 172 170 171 175 177 178 178 181 184 186 188 189 187 187 191 196 196 194 195 194 194 196 199 202 205 210 211 212 212 215 218 220 222 223 225 226 227 229 232 235 238 240 243 246
343 349 352 354 358 359 2 4 5 6 6 5 6 7 8 10 11 14 19 29 39 45 51 55 59 66 77 86 95 106 109 116 131 139 144 148 149 150 154 160 164 167 169 170 170 169 168 172 174 174 174 174 179 183 186 186 184 183 185 191 193 194 195 195 195 197 197 200 204 206 210 211 210 213 216 219 221 223 225 228 230 231 233 235 239 242 244 247
342 350 353 355 359 0 3 6 7 7 7 7 8 8 10 12 13 15 23 34 42 47 52 57 63 69 78 86 95 106 110 118 132 139 143 146 148 149 152 158 162 166 167 166 169 169 167 168 170 170 168 168 176 183 185 185 184 183 184 187 191 193 194 194 196 199 200 202 202 204 207 209 209 211 214 217 219 222 224 228 232 233 234 236 239 242 242 244
342 349 353 356 359 1 4 7 8 9 9 9 10 10 12 14 14 19 28 38 46 50 55 60 66 73 78 83 89 99 110 120 129 138 144 145 147 149 152 158 159 163 166 163 166 169 165 165 167 165 160 162 174 181 184 184 182 182 184 186 189 192 195 197 198 200 202 203 203 203 207 208 208 209 212 214 217 220 223 226 230 232 233 233 235 239 240 241
340 349 354 357 0 2 5 8 9 10 10 11 12 12 14 15 16 23 30 39 49 54 58 62 67 76 82 88 92 99 111 121 127 136 142 144 148 149 153 160 158 160 166 163 163 166 164 163 164 163 161 161 166 172 177 179 178 179 183 186 189 193 198 201 202 203 205 205 203 204 208 210 209 209 212 213 215 218 220 223 228 230 231 231 234 239 241 241
338 347 354 358 1 3 6 9 11 11 12 12 13 15 16 16 18 25 32 41 52 56 60 62 66 76 87 95 98 101 107 116 124 133 140 144 149 150 154 161 159 160 165 162 161 164 163 162 163 165 168 166 161 162 166 170 173 176 180 187 194 196 200 204 205 207 208 208 206 206 209 211 210 210 212 211 213 215 218 221 221 221 224 226 229 231 232 233
335 345 353 359 2 4 7 11 12 12 13 14 15 17 17 17 21 26 33 44 54 59 62 65 69 78 88 95 99 103 106 112 120 128 137 143 149 151 154 159 160 161 165 162 161 164 162 162 164 167 172 170 162 160 162 164 170 174 177 186 194 198 204 209 210 209 209 210 209 208 209 209 209 210 210 208 207 206 208 207 199 197 201 202 199 198 198 199
331 342 352 359 3 5 8 12 13 14 15 15 17 19 17 18 23 28 33 44 56 62 65 68 73 79 85 91 97 101 105 112 118 123 133 142 148 152 154 159 159 160 165 164 162 164 163 162 163 166 169 171 167 164 163 164 168 172 175 181 188 191 199 209 214 215 214 215 213 211 210 208 206 208 207 203 200 197 194 187 181 179 178 176 175 177 180 184
326 339 350 359 4 6 9 13 14 15 16 17 19 20 18 20 25 30 35 44 56 65 68 72 75 77 83 89 92 95 100 108 115 122 133 141 146 152 155 159 159 158 163 166 163 163 164 162 162 163 165 167 167 164 161 163 168 171 175 179 183 187 191 196 200 202 206 209 208 209 208 204 203 205 202 199 197 195 191 185 179 175 170 170 174 179 185 190
321 334 347 359 4 7 11 13 15 17 17 18 21 21 20 22 26 31 36 42 55 66 71 74 76 78 83 88 90 92 96 103 111 122 133 138 143 151 155 157 158 157 161 164 163 162 163 162 161 161 162 164 164 162 161 162 165 169 174 177 180 186 191 193 193 194 199 203 203 204 202 199 201 202 200 199 198 198 196 191 186 183 182 189 188 188 192 196
314 329 344 357 4 8 13 14 16 18 18 19 22 22 22 24 27 31 37 42 52 65 73 77 79 81 83 86 89 92 95 100 108 118 128 135 141 148 153 156 156 156 158 160 161 160 162 162 160 159 160 161 161 161 160 160 163 166 170 174 177 182 188 193 195 196 200 202 202 202 198 197 201 202 200 200 200 202 202 198 198 204 218 220 207 200 199 199
308 323 338 353 4 9 14 16 17 20 20 21 23 23 24 26 28 32 37 42 49 61 72 78 81 84 84 86 89 93 97 101 106 114 123 133 140 146 151 155 155 155 156 157 158 160 161 162 160 159 159 159 160 161 160 159 162 164 166 172 177 179 181 189 194 195 198 200 201 200 195 196 200 201 201 202 203 205 205 204 208 219 227 223 211 205 203 200
297 315 330 349 3 10 14 17 18 20 22 23 24 24 26 28 29 32 37 43 48 57 69 77 82 85 86 87 89 94 100 103 108 114 122 132 140 145 150 153 154 154 155 155 156 159 160 162 161 159 158 159 160 162 161 159 159 161 166 170 174 176 179 185 188 190 194 195 195 194 192 194 197 199 200 201 202 205 205 204 208 214 217 212 205 202 200 200
286 306 322 343 360 9 14 17 19 21 23 25 25 26 28 30 31 33 37 42 48 55 64 74 81 84 85 86 88 94 100 105 111 116 123 132 140 145 149 151 152 153 154 153 155 156 158 162 162 159 159 160 162 162 161 158 158 161 165 167 168 173 177 180 180 182 188 188 187 187 188 192 195 197 198 197 197 200 201 201 201 202 202 199 196 194 195 197
275 294 312 334 355 6 14 17 19 22 25 27 27 27 29 31 33 34 37 41 47 54 61 69 77 82 84 86 89 95 100 106 112 116 123 131 138 144 148 149 151 152 153 153 153 155 156 161 163 161 161 162 162 162 160 158 160 162 164 165 167 169 171 171 170 171 176 178 178 180 183 186 188 190 191 191 191 193 195 196 194 193 191 188 186 187 190 196
263 280 298 320 349 2 12 18 20 22 25 28 29 29 30 33 35 36 38 41 46 53 60 66 73 80 84 87 91 95 101 107 112 116 123 130 136 142 146 147 149 151 153 153 153 154 156 160 164 163 163 163 162 162 161 161 163 163 163 166 167 167 167 167 165 164 164 165 167 171 173 175 176 179 181 182 184 185 187 188 186 184 183 183 185 189 195 205
254 267 285 304 336 356 9 18 21 22 26 29 31 31 31 34 37 38 39 42 45 50 58 65 71 78 84 89 93 96 100 106 110 115 122 129 135 140 143 145 147 150 152 152 153 154 155 158 163 165 164 163 162 163 163 164 165 164 165 166 166 165 166 166 165 162 159 158 161 163 163 165 167 169 171 175 177 179 181 181 181 182 185 190 196 203 211 221
245 253 269 286 313 341 2 17 21 23 26 30 33 33 32 34 38 40 41 43 45 49 55 64 72 78 84 90 94 97 100 104 109 115 121 127 133 138 140 143 146 149 151 152 153 155 156 158 162 164 164 163 164 165 165 166 167 166 166 166 165 165 167 168 167 165 161 160 161 161 161 163 165 167 170 174 177 180 182 184 187 192 198 205 212 219 228 237
238 242 254 269 287 318 349 11 21 24 27 31 34 36 35 35 38 41 43 45 47 49 53 61 71 79 85 90 94 98 101 104 109 114 120 126 131 136 138 141 144 148 150 151 153 156 156 157 160 162 163 164 164 165 165 165 167 167 167 167 167 167 169 172 170 169 169 166 165 167 169 170 172 174 177 180 184 188 192 195 200 206 213 220 227 234 241 248
234 235 241 252 265 289 327 0 20 25 27 31 35 38 38 37 38 41 44 46 48 50 54 59 68 78 86 92 95 99 103 106 110 115 120 126 131 134 136 139 142 146 148 150 153 155 155 156 158 160 161 162 164 167 167 166 168 171 171 171 173 172 172 172 172 174 176 174 174 178 180 180 183 186 189 192 195 199 203 208 213 218 224 230 237 243 249 256
230 233 234 238 250 264 291 336 11 24 27 31 35 40 41 40 39 41 44 47 49 51 54 58 65 75 85 92 97 101 104 108 113 117 122 126 130 134 136 138 141 144 146 149 153 155 155 156 158 159 160 162 165 168 170 169 170 173 173 173 175 174 173 173 176 180 180 179 184 188 188 191 195 197 200 203 205 209 214 219 224 228 233 237 243 250 256 262
226 232 231 230 237 246 261 295 345 19 28 30 33 39 44 44 42 43 45 48 50 53 55 58 62 70 81 91 99 103 107 110 114 118 122 126 130 133 135 138 141 143 145 147 151 154 156 157 159 160 162 165 167 168 170 173 173 173 174 175 175 175 178 179 181 184 183 184 194 195 192 199 206 205 206 209 212 218 224 229 233 237 241 247 252 257 260 264
226 231 229 227 229 235 245 264 298 352 23 29 30 36 45 48 46 45 46 48 51 54 56 59 61 66 74 86 97 104 108 111 115 119 123 126 130 132 134 137 140 143 145 148 151 154 158 159 159 161 164 168 170 170 171 175 178 179 178 179 180 182 185 186 187 191 190 194 204 202 199 210 215 211 212 217 221 227 233 236 239 242 246 252 256 259 262 266
228 231 229 225 225 229 234 245 261 290 356 21 26 32 44 50 50 48 48 49 51 53 56 60 62 65 70 78 90 101 109 113 116 120 123 126 129 131 133 135 139 142 144 147 150 155 160 161 161 163 165 168 170 170 171 175 179 182 184 185 188 189 191 192 194 197 198 204 210 209 211 220 220 214 220 227 229 234 239 241 243 246 250 253 256 260 264 268
230 232 229 223 222 225 229 234 242 255 287 347 23 33 40 50 54 54 52 52 52 54 56 59 63 66 69 73 80 91 104 113 119 122 124 127 129 131 133 135 138 141 143 146 151 156 160 161 162 164 166 168 170 170 170 172 174 178 182 185 189 192 195 197 199 201 205 210 215 219 224 228 226 222 226 230 234 239 246 251 252 254 256 258 261 264 267 269
231 233 230 224 221 221 224 229 233 241 254 268 347 26 30 44 56 60 58 56 55 57 58 60 62 66 69 72 75 80 89 103 115 122 125 128 130 132 134 135 138 141 143 146 151 156 160 162 164 167 169 170 172 174 175 176 176 178 182 185 189 193 197 200 205 208 209 213 220 228 233 234 236 239 240 242 245 248 254 259 261 260 261 263 265 266 268 268
Height
5780 5778 5775 5772 5769 5766 5763 5760 5757 5754 5750 5746 5742 5738 5733 5729 5724 5719 5715 5710 5705 5700 5695 5691 5686 5683 5681 5679 5679 5679 5681 5682 5684 5687 5690 5693 5697 5701 5707 5712 5716 5720 5724 5729 5733 5737 5741 5745 5750 5754 5756 5760 5764 5767 5770 5774 5778 5781 5783 5785 5789 5792 5795 5798 5802 5805 5808 5811 5813 5815 5819 5822 5824 5826 5828 5830 5832 5834 5835 5837 5838 5840 5842 5844 5845 5847 5848 5850
5778 5776 5773 5771 5767 5764 5761 5757 5754 5751 5747 5742 5738 5733 5729 5724 5719 5713 5708 5703 5697 5692 5687 5682 5678 5675 5673 5671 5671 5672 5674 5675 5676 5680 5684 5687 5691 5695 5701 5706 5710 5715 5719 5724 5728 5732 5736 5741 5746 5750 5753 5757 5761 5765 5768 5771 5775 5779 5781 5783 5787 5790 5793 5796 5799 5803 5805 5808 5810 5813 5816 5819 5822 5824 5825 5828 5831 5832 5834 5835 5838 5840 5842 5843 5845 5846 5847 5849
5777 5774 5771 5768 5765 5762 5758 5755 5751 5747 5743 5739 5734 5729 5724 5719 5713 5707 5701 5696 5690 5684 5679 5674 5670 5667 5666 5664 5664 5664 5666 5668 5669 5673 5677 5680 5684 5689 5695 5701 5705 5710 5715 5719 5724 5728 5732 5737 5742 5746 5750 5753 5758 5762 5764 5768 5773 5776 5779 5782 5786 5789 5791 5794 5797 5800 5803 5806 5808 5811 5814 5817 5819 5821 5823 5826 5828 5831 5833 5835 5837 5839 5841 5842 5843 5845 5846 5848
5775 5772 5769 5766 5763 5760 5756 5752 5748 5744 5740 5735 5730 5725 5719 5714 5708 5702 5695 5689 5683 5677 5672 5667 5663 5661 5659 5658 5658 5658 5660 5662 5663 5665 5670 5674 5678 5683 5689 5695 5701 5705 5710 5715 5719 5723 5728 5732 5737 5742 5746 5750 5754 5759 5762 5766 5770 5774 5777 5780 5785 5788 5789 5792 5795 5797 5801 5804 5807 5810 5812 5815 5818 5819 5821 5824 5827 5830 5832 5833 5835 5837 5839 5840 5842 5843 5845 5847
5774 5771 5768 5764 5761 5757 5753 5750 5745 5741 5736 5731 5726 5721 5715 5709 5703 5696 5689 5683 5676 5670 5665 5661 5657 5655 5654 5653 5652 5652 5654 5655 5657 5659 5663 5667 5672 5677 5683 5690 5695 5700 5705 5710 5714 5719 5723 5728 5732 5737 5742 5747 5751 5756 5760 5764 5768 5771 5776 5780 5783 5786 5788 5790 5792 5796 5799 5802 5805 5807 5810 5813 5816 5818 5820 5823 5825 5828 5830 5831 5834 5836 5838 5839 5841 5843 5844 5846
5772 5769 5766 5762 5758 5755 5751 5747 5742 5738 5733 5728 5722 5716 5710 5704 5697 5690 5683 5676 5670 5664 5659 5655 5652 5650 5649 5648 5647 5647 5648 5650 5651 5654 5658 5662 5666 5672 5678 5684 5690 5695 5700 5705 5710 5714 5719 5723 5728 5733 5738 5744 5749 5754 5758 5761 5765 5769 5774 5778 5781 5783 5786 5789 5791 5794 5797 5800 5802 5805 5808 5811 5814 5816 5818 5821 5823 5826 5828 5830 5832 5835 5837 5838 5840 5842 5843 5845
5770 5767 5764 5760 5756 5753 5748 5744 5740 5735 5730 5724 5718 5712 5706 5699 5692 5685 5677 5671 5664 5659 5654 5651 5647 5645 5644 5643 5643 5643 5643 5644 5646 5648 5652 5657 5661 5666 5672 5679 5685 5690 5695 5701 5706 5710 5715 5720 5725 5730 5735 5740 5746 5751 5755 5758 5762 5767 5772 5775 5778 5780 5783 5787 5790 5792 5795 5797 5800 5803 5806 5809 5812 5814 5816 5819 5821 5824 5826 5829 5832 5834 5835 5836 5839 5840 5842 5843
5769 5765 5762 5758 5754 5750 5746 5742 5737 5732 5727 5721 5715 5708 5702 5695 5687 5680 5672 5665 5659 5654 5650 5647 5644 5642 5640 5639 5638 5638 5639 5639 5640 5643 5647 5651 5656 5661 5667 5674 5681 5686 5691 5697 5702 5707 5712 5717 5721 5726 5732 5738 5743 5747 5751 5756 5760 5764 5769 5773 5777 5780 5783 5786 5788 5790 5793 5795 5798 5800 5803 5806 5809 5812 5814 5817 5819 5821 5824 5827 5831 5832 5833 5834 5836 5838 5840 5842
5767 5764 5760 5756 5752 5748 5744 5739 5734 5729 5723 5717 5711 5704 5697 5690 5682 5675 5667 5660 5655 5650 5646 5643 5640 5638 5637 5635 5634 5634 5634 5634 5636 5638 5642 5647 5652 5657 5663 5670 5676 5682 5688 5693 5699 5704 5708 5713 5718 5723 5729 5734 5739 5743 5748 5754 5759 5762 5766 5771 5775 5778 5781 5784 5786 5789 5792 5794 5796 5799 5802 5804 5807 5810 5812 5815 5817 5819 5821 5824 5827 5829 5831 5833 5835 5837 5838 5840
5765 5762 5758 5754 5750 5746 5742 5737 5732 5726 5720 5714 5707 5700 5693 5685 5677 5670 5662 5656 5650 5646 5643 5639 5637 5634 5633 5631 5630 5630 5630 5630 5632 5634 5638 5642 5647 5652 5658 5665 5672 5678 5684 5690 5695 5700 5704 5709 5715 5721 5726 5730 5735 5740 5745 5751 5757 5761 5764 5768 5772 5775 5778 5782 5784 5787 5790 5792 5794 5797 5800 5802 5805 5807 5810 5813 5815 5818 5820 5822 5825 5827 5830 5832 5834 5836 5837 5839
5764 5760 5757 5753 5749 5744 5740 5735 5729 5723 5717 5711 5704 5696 5689 5681 5673 5665 5658 5651 5647 5643 5639 5635 5633 5630 5628 5627 5626 5626 5626 5626 5628 5630 5633 5639 5644 5649 5655 5661 5668 5674 5680 5686 5692 5696 5701 5707 5712 5717 5721 5726 5732 5737 5743 5749 5755 5759 5762 5766 5770 5773 5776 5780 5782 5785 5788 5791 5793 5796 5798 5801 5803 5805 5808 5811 5814 5816 5819 5822 5824 5826 5828 5830 5832 5834 5836 5838
5762 5759 5755 5751 5747 5742 5738 5733 5727 5721 5715 5708 5701 5693 5685 5677 5668 5660 5653 5648 5643 5639 5635 5632 5629 5626 5624 5622 5621 5621 5621 5622 5624 5626 5629 5635 5640 5645 5651 5658 5664 5670 5676 5682 5688 5693 5699 5704 5709 5713 5718 5724 5730 5735 5742 5748 5754 5758 5761 5764 5767 5771 5774 5778 5781 5784 5786 5790 5792 5795 5797 5798 5801 5804 5806 5810 5812 5815 5817 5820 5822 5824 5826 5828 5831 5833 5835 5836
5761 5758 5754 5750 5745 5741 5736 5731 5725 5719 5712 5705 5698 5690 5682 5673 5665 5657 5649 5644 5640 5636 5631 5628 5625 5622 5619 5618 5616 5616 5616 5618 5619 5622 5626 5631 5637 5642 5648 5654 5661 5667 5673 5679 5685 5690 5696 5701 5706 5710 5716 5723 5728 5733 5740 5747 5752 5756 5759 5761 5764 5768 5772 5775 5779 5782 5786 5789 5791 5793 5795 5796 5799 5802 5805 5808 5811 5813 5816 5818 5821 5823 5825 5827 5830 5832 5834 5835
5760 5756 5752 5748 5744 5739 5734 5729 5723 5717 5710 5703 5695 5688 5679 5670 5661 5653 5646 5640 5636 5632 5628 5625 5621 5618 5615 5613 5612 5612 5612 5614 5616 5619 5623 5627 5633 5639 5645 5651 5657 5663 5670 5676 5682 5688 5693 5698 5703 5709 5715 5720 5725 5731 5738 5744 5749 5753 5756 5759 5762 5765 5769 5773 5776 5779 5783 5786 5788 5791 5793 5795 5798 5801 5804 5807 5809 5811 5814 5816 5819 5821 5823 5826 5828 5830 5832 5834
5759 5755 5751 5747 5743 5738 5733 5727 5721 5715 5708 5701 5693 5685 5676 5667 5658 5650 5643 5637 5633 5629 5624 5621 5617 5614 5611 5610 5609 5608 5609 5611 5613 5616 5620 5624 5630 5636 5643 5649 5655 5661 5667 5673 5679 5685 5690 5695 5701 5706 5712 5717 5723 5728 5734 5740 5746 5749 5752 5756 5760 5764 5767 5772 5775 5778 5781 5784 5786 5789 5791 5793 5797 5800 5803 5806 5808 5810 5813 5815 5817 5820 5822 5824 5826 5828 5830 5832
5758 5754 5750 5746 5741 5736 5731 5725 5719 5713 5706 5699 5691 5682 5674 5665 5656 5648 5641 5635 5630 5626 5621 5618 5614 5611 5608 5606 5606 5606 5607 5608 5610 5613 5617 5622 5627 5634 5641 5647 5653 5659 5665 5671 5677 5682 5688 5693 5698 5703 5709 5715 5720 5725 5731 5737 5742 5745 5750 5754 5758 5762 5766 5770 5773 5776 5779 5782 5785 5788 5790 5792 5795 5798 5801 5803 5806 5808 5811 5813 5816 5818 5820 5822 5824 5826 5828 5830
5757 5754 5749 5745 5740 5735 5730 5724 5718 5712 5705 5697 5689 5680 5671 5662 5653 5646 5639 5634 5629 5624 5620 5616 5612 5608 5605 5604 5604 5604 5605 5607 5608 5611 5615 5620 5626 5632 5639 5646 5652 5658 5664 5669 5674 5680 5685 5691 5697 5702 5708 5714 5719 5723 5727 5733 5738 5743 5748 5753 5757 5761 5766 5769 5772 5774 5778 5781 5784 5786 5788 5791 5793 5796 5799 5802 5804 5806 5809 5811 5814 5816 5819 5821 5822 5824 5826 5828
5756 5753 5748 5744 5739 5734 5729 5723 5717 5711 5704 5696 5688 5679 5670 5661 5652 5644 5638 5633 5628 5623 5619 5616 5611 5606 5604 5602 5602 5603 5604 5605 5607 5609 5613 5619 5625 5631 5638 5644 5650 5656 5662 5667 5672 5678 5685 5690 5696 5701 5706 5711 5717 5722 5726 5733 5739 5744 5748 5753 5757 5760 5764 5767 5771 5774 5777 5779 5782 5784 5786 5789 5791 5794 5797 5799 5802 5804 5807 5810 5812 5814 5817 5819 5821 5823 5825 5826
5755 5752 5747 5743 5738 5733 5728 5722 5716 5710 5703 5695 5687 5678 5669 5659 5651 5643 5637 5632 5627 5623 5619 5615 5610 5605 5603 5601 5602 5603 5604 5605 5606 5608 5612 5618 5624 5630 5637 5643 5650 5655 5660 5666 5672 5678 5684 5689 5695 5700 5706 5712 5717 5722 5728 5734 5741 5745 5749 5754 5757 5760 5763 5766 5769 5772 5775 5777 5780 5782 5785 5787 5789 5792 5795 5797 5800 5803 5806 5808 5811 5813 5815 5818 5819 5821 5822 5824
5754 5751 5747 5742 5737 5733 5728 5722 5715 5709 5702 5694 5686 5677 5668 5659 5650 5643 5638 5633 5628 5623 5618 5613 5609 5605 5603 5602 5602 5603 5604 5605 5606 5609 5613 5619 5625 5631 5637 5643 5649 5655 5660 5667 5674 5679 5684 5690 5696 5701 5707 5713 5718 5722 5727 5732 5738 5743 5747 5751 5755 5759 5762 5765 5767 5770 5773 5775 5778 5781 5783 5785 5788 5791 5793 5796 5799 5802 5804 5807 5809 5811 5814 5816 5818 5819 5820 5822
5754 5750 5746 5742 5737 5732 5727 5721 5715 5709 5702 5694 5686 5677 5668 5659 5651 5644 5639 5633 5628 5623 5618 5613 5609 5606 5605 5604 5604 5604 5605 5606 5607 5610 5615 5620 5626 5632 5637 5643 5649 5655 5661 5668 5674 5680 5686 5691 5696 5701 5706 5711 5717 5721 5725 5730 5735 5740 5744 5749 5753 5757 5760 5763 5766 5769 5771 5774 5776 5779 5781 5783 5786 5789 5792 5794 5797 5800 5803 5805 5808 5810 5812 5814 5816 5818 5819 5821
5753 5750 5746 5741 5737 5732 5727 5721 5715 5709 5702 5694 5686 5677 5668 5660 5652 5645 5639 5634 5628 5623 5618 5614 5610 5608 5607 5606 5606 5606 5607 5608 5609 5613 5617 5622 5627 5632 5638 5644 5650 5656 5662 5669 5675 5680 5686 5691 5696 5701 5706 5711 5716 5720 5724 5729 5734 5738 5743 5747 5751 5754 5758 5761 5764 5767 5770 5773 5775 5777 5780 5782 5785 5787 5790 5793 5796 5798 5801 5804 5806 5809 5811 5813 5815 5816 5818 5819
5752 5749 5745 5741 5736 5732 5727 5721 5715 5709 5702 5694 5686 5678 5669 5660 5652 5645 5640 5635 5629 5624 5620 5616 5612 5610 5609 5609 5609 5609 5610 5611 5613 5616 5620 5625 5629 5635 5640 5645 5651 5658 5664 5671 5676 5682 5686 5691 5697 5702 5707 5711 5715 5720 5724 5729 5733 5739 5743 5746 5750 5754 5757 5761 5764 5766 5769 5771 5774 5776 5778 5781 5783 5786 5789 5792 5795 5797 5800 5803 5805 5808 5810 5811 5813 5814 5816 5818
5752 5749 5745 5741 5736 5732 5727 5721 5715 5709 5702 5695 5687 5679 5670 5661 5653 5647 5641 5637 5631 5626 5622 5618 5615 5613 5612 5612 5612 5613 5613 5615 5617 5620 5624 5628 5633 5638 5643 5648 5654 5660 5666 5671 5677 5683 5689 5694 5698 5703 5707 5712 5716 5721 5725 5729 5734 5739 5743 5747 5751 5754 5757 5760 5763 5766 5768 5770 5773 5775 5778 5780 5782 5785 5788 5790 5793 5796 5799 5801 5804 5806 5808 5810 5811 5813 5815 5817
5752 5748 5745 5741 5737 5732 5727 5722 5716 5709 5703 5696 5688 5680 5672 5663 5655 5649 5644 5639 5634 5629 5624 5620 5618 5616 5616 5616 5616 5617 5617 5619 5621 5625 5629 5632 5637 5641 5646 5651 5656 5661 5667 5673 5678 5683 5690 5695 5700 5704 5708 5713 5717 5722 5726 5730 5735 5739 5743 5747 5750 5754 5757 5759 5762 5765 5767 5769 5772 5775 5777 5780 5782 5784 5787 5789 5792 5795 5797 5800 5802 5804 5806 5808 5810 5812 5813 5814
5751 5748 5745 5741 5737 5733 5728 5722 5716 5710 5704 5697 5689 5682 5673 5665 5658 5652 5647 5642 5637 5633 5628 5624 5622 5621 5620 5620 5621 5621 5622 5624 5627 5631 5634 5637 5641 5645 5650 5654 5659 5663 5669 5674 5679 5684 5690 5696 5701 5705 5710 5714 5718 5722 5726 5730 5735 5739 5743 5746 5749 5753 5755 5758 5761 5764 5766 5768 5771 5774 5776 5779 5781 5783 5786 5788 5790 5793 5796 5798 5800 5802 5804 5806 5808 5809 5811 5812
5751 5748 5745 5741 5737 5733 5728 5723 5717 5711 5705 5698 5691 5683 5675 5667 5660 5655 5651 5646 5641 5636 5632 5629 5628 5626 5626 5625 5625 5626 5628 5629 5632 5635 5638 5641 5644 5649 5653 5657 5662 5666 5671 5675 5681 5686 5691 5697 5701 5706 5711 5715 5720 5723 5727 5731 5734 5738 5742 5746 5750 5753 5755 5758 5760 5763 5765 5768 5770 5772 5775 5778 5780 5782 5785 5787 5789 5792 5794 5796 5798 5800 5802 5804 5806 5808 5809 5810
5751 5748 5745 5741 5738 5734 5729 5723 5718 5713 5706 5700 5693 5685 5677 5669 5662 5658 5654 5649 5644 5640 5636 5634 5633 5632 5631 5630 5630 5631 5633 5634 5637 5638 5641 5644 5647 5651 5656 5661 5665 5669 5674 5679 5684 5688 5693 5698 5703 5708 5713 5717 5721 5724 5727 5730 5734 5738 5742 5746 5749 5752 5755 5758 5761 5763 5765 5767 5769 5772 5774 5777 5779 5782 5784 5786 5788 5791 5792 5794 5796 5798 5800 5802 5804 5806 5807 5808
5751 5748 5745 5742 5738 5734 5730 5724 5719 5714 5708 5702 5695 5687 5679 5671 5666 5661 5656 5651 5646 5643 5640 5639 5638 5637 5636 5636 5636 5636 5637 5639 5640 5642 5645 5648 5651 5654 5658 5662 5667 5672 5676 5682 5687 5691 5695 5700 5706 5710 5715 5719 5722 5724 5727 5730 5734 5738 5741 5745 5748 5752 5755 5758 5760 5762 5764 5766 5768 5771 5773 5776 5779 5781 5783 5785 5787 5789 5791 5792 5794 5796 5798 5800 5802 5804 5805 5806
5751 5748 5745 5742 5738 5735 5731 5726 5721 5715 5710 5704 5697 5689 5681 5674 5669 5664 5659 5653 5649 5647 5645 5644 5644 5642 5641 5641 5641 5641 5642 5643 5645 5647 5649 5651 5655 5658 5661 5664 5668 5674 5679 5682 5688 5693 5697 5702 5707 5712 5716 5720 5722 5723 5727 5730 5734 5738 5741 5745 5748 5752 5755 5757 5759 5762 5763 5765 5768 5770 5773 5775 5778 5780 5782 5784 5786 5788 5790 5791 5793 5794 5796 5798 5800 5801 5802 5804
5750 5748 5745 5742 5739 5736 5732 5727 5722 5717 5712 5706 5699 5692 5684 5678 5672 5667 5661 5656 5652 5651 5650 5649 5648 5646 5645 5645 5646 5645 5646 5648 5649 5651 5653 5655 5658 5660 5664 5667 5670 5675 5681 5684 5689 5695 5699 5704 5708 5713 5717 5719 5721 5724 5727 5731 5735 5738 5742 5745 5748 5751 5754 5757 5759 5761 5763 5765 5767 5770 5772 5775 5777 5779 5781 5783 5785 5787 5789 5790 5791 5793 5795 5796 5798 5799 5800 5802
5750 5748 5745 5743 5740 5736 5733 5728 5723 5719 5714 5708 5702 5694 5687 5681 5675 5668 5663 5658 5656 5655 5654 5652 5651 5650 5649 5650 5650 5650 5651 5652 5653 5655 5657 5659 5661 5663 5666 5670 5673 5677 5681 5685 5690 5696 5700 5705 5710 5714 5716 5718 5721 5725 5728 5731 5735 5739 5742 5746 5749 5751 5754 5756 5758 5760 5762 5765 5767 5770 5772 5774 5777 5779 5780 5783 5785 5786 5788 5789 5791 5792 5794 5795 5796 5797 5799 5800
5750 5748 5746 5743 5740 5737 5734 5730 5725 5721 5716 5710 5704 5697 5691 5686 5678 5671 5666 5662 5659 5659 5657 5656 5655 5654 5654 5654 5654 5654 5655 5656 5657 5658 5660 5662 5664 5667 5670 5673 5677 5681 5684 5687 5691 5696 5701 5705 5710 5714 5717 5719 5723 5727 5730 5733 5736 5740 5743 5746 5749 5752 5754 5756 5758 5760 5762 5765 5767 5769 5772 5774 5776 5777 5779 5782 5784 5786 5787 5789 5790 5792 5793 5794 5795 5796 5797 5798
5750 5748 5746 5743 5741 5738 5735 5731 5727 5722 5718 5713 5707 5700 5695 5689 5681 5673 5669 5665 5663 5662 5661 5660 5659 5658 5658 5657 5658 5658 5658 5660 5660 5661 5663 5665 5667 5670 5672 5676 5679 5683 5688 5691 5694 5698 5702 5705 5710 5715 5718 5721 5724 5728 5731 5735 5738 5741 5744 5747 5749 5752 5754 5757 5759 5761 5763 5765 5767 5769 5771 5772 5774 5776 5778 5781 5783 5785 5786 5788 5790 5791 5792 5793 5794 5795 5796 5797
5750 5748 5746 5744 5741 5739 5736 5732 5728 5724 5720 5715 5709 5703 5699 5692 5684 5677 5672 5669 5666 5665 5664 5663 5662 5661 5661 5662 5662 5662 5662 5663 5663 5664 5666 5668 5670 5672 5675 5678 5681 5685 5690 5694 5697 5701 5705 5708 5712 5716 5720 5723 5726 5729 5732 5736 5739 5742 5744 5747 5750 5752 5754 5756 5758 5760 5763 5764 5766 5768 5769 5771 5773 5775 5777 5779 5781 5784 5785 5787 5788 5790 5791 5792 5793 5794 5795 5796
5750 5748 5747 5744 5742 5740 5737 5733 5730 5726 5722 5718 5712 5707 5702 5695 5687 5681 5676 5673 5670 5668 5668 5667 5665 5665 5665 5665 5665 5665 5665 5666 5667 5667 5669 5670 5672 5675 5678 5681 5684 5688 5692 5697 5701 5704 5708 5711 5714 5718 5721 5725 5728 5731 5733 5737 5740 5743 5745 5747 5750 5752 5754 5756 5757 5759 5761 5763 5764 5766 5768 5770 5772 5773 5775 5777 5780 5782 5784 5785 5787 5788 5790 5791 5792 5793 5794 5795
5749 5748 5747 5745 5743 5740 5737 5735 5732 5728 5724 5720 5715 5711 5705 5698 5692 5685 5680 5676 5674 5672 5671 5670 5669 5668 5668 5668 5668 5668 5668 5669 5670 5670 5671 5673 5675 5677 5681 5684 5687 5691 5695 5700 5704 5708 5711 5714 5717 5720 5723 5726 5729 5732 5735 5738 5741 5743 5746 5748 5750 5752 5754 5756 5758 5759 5761 5762 5764 5765 5767 5769 5770 5772 5774 5776 5778 5780 5782 5784 5786 5787 5788 5790 5791 5792 5793 5794
5749 5748 5747 5745 5743 5741 5738 5736 5733 5730 5727 5723 5718 5714 5709 5702 5696 5690 5684 5680 5677 5675 5673 5673 5672 5671 5671 5671 5671 5670 5671 5672 5672 5673 5674 5676 5678 5680 5683 5687 5690 5693 5697 5701 5706 5710 5714 5717 5720 5722 5725 5728 5731 5733 5736 5738 5741 5744 5746 5748 5750 5752 5754 5756 5757 5759 5760 5762 5763 5765 5767 5768 5769 5771 5773 5775 5777 5779 5781 5783 5785 5786 5788 5789 5790 5791 5792 5793
5748 5748 5747 5745 5743 5742 5739 5737 5735 5732 5729 5725 5721 5717 5712 5706 5700 5694 5689 5684 5681 5679 5677 5676 5675 5674 5674 5674 5673 5673 5674 5674 5675 5676 5677 5679 5681 5683 5686 5690 5693 5696 5700 5703 5707 5712 5715 5719 5722 5724 5727 5730 5732 5734 5737 5739 5741 5744 5746 5749 5751 5752 5754 5755 5757 5759 5760 5762 5763 5765 5766 5767 5769 5770 5772 5774 5776 5778 5780 5782 5784 5785 5786 5788 5789 5790 5791 5793
5747 5747 5747 5745 5744 5742 5740 5738 5736 5734 5731 5727 5724 5720 5715 5710 5704 5699 5693 5689 5685 5682 5680 5679 5678 5678 5677 5677 5676 5677 5677 5677 5678 5679 5680 5682 5684 5687 5689 5693 5696 5699 5703 5706 5709 5713 5717 5721 5724 5726 5728 5731 5733 5735 5738 5740 5742 5744 5747 5749 5751 5752 5754 5756 5757 5759 5760 5762 5763 5764 5766 5767 5769 5770 5772 5774 5775 5777 5779 5781 5782 5784 5785 5787 5788 5789 5791 5792
5747 5747 5746 5745 5744 5743 5741 5739 5737 5735 5733 5730 5727 5723 5719 5714 5709 5703 5698 5693 5689 5687 5684 5683 5681 5681 5680 5680 5680 5680 5680 5680 5681 5682 5684 5686 5688 5691 5693 5696 5699 5703 5706 5709 5712 5715 5719 5722 5726 5728 5730 5732 5734 5736 5739 5741 5743 5745 5747 5749 5751 5752 5754 5756 5758 5759 5760 5762 5763 5764 5765 5767 5768 5770 5771 5773 5775 5776 5778 5780 5781 5783 5784 5786 5787 5789 5790 5791
5746 5746 5746 5745 5744 5743 5742 5740 5739 5737 5735 5732 5729 5726 5722 5718 5713 5708 5703 5698 5694 5691 5688 5687 5685 5684 5683 5683 5683 5683 5683 5684 5684 5685 5687 5690 5692 5695 5697 5700 5703 5706 5709 5712 5714 5717 5720 5723 5726 5729 5731 5733 5735 5738 5740 5742 5743 5745 5747 5749 5751 5753 5755 5756 5758 5759 5761 5762 5763 5764 5765 5767 5768 5769 5771 5772 5774 5776 5777 5779 5780 5782 5784 5785 5786 5788 5789 5790
5744 5745 5745 5744 5744 5743 5742 5741 5740 5738 5736 5734 5731 5728 5725 5721 5717 5713 5708 5703 5699 5695 5693 5691 5689 5688 5687 5687 5686 5687 5687 5688 5688 5689 5692 5694 5696 5699 5702 5704 5707 5709 5712 5715 5717 5719 5722 5725 5728 5731 5733 5735 5737 5740 5741 5743 5745 5747 5748 5750 5752 5753 5755 5757 5758 5760 5761 5763 5764 5765 5766 5767 5768 5770 5771 5772 5774 5775 5777 5779 5780 5782 5783 5784 5786 5787 5788 5789
5743 5743 5744 5744 5743 5743 5742 5742 5741 5739 5738 5736 5733 5731 5728 5725 5721 5717 5713 5708 5704 5700 5697 5695 5694 5693 5692 5691 5691 5690 5691 5692 5692 5693 5696 5698 5700 5703 5705 5708 5710 5713 5715 5718 5720 5722 5724 5726 5729 5732 5734 5737 5739 5740 5742 5744 5746 5748 5749 5751 5752 5754 5756 5757 5759 5760 5762 5763 5764 5766 5767 5768 5769 5770 5772 5773 5774 5776 5777 5779 5780 5781 5783 5784 5785 5786 5787 5787
5741 5742 5743 5743 5743 5743 5742 5742 5741 5740 5739 5737 5735 5733 5731 5728 5725 5721 5717 5713 5709 5705 5702 5700 5698 5697 5696 5696 5695 5695 5695 5696 5697 5698 5700 5702 5704 5707 5709 5711 5714 5716 5718 5721 5723 5725 5727 5729 5731 5733 5736 5738 5740 5742 5744 5745 5747 5749 5750 5752 5753 5754 5756 5757 5759 5760 5762 5763 5765 5766 5767 5768 5769 5770 5772 5773 5774 5775 5777 5778 5779 5781 5782 5783 5783 5784 5785 5785
5740 5741 5741 5742 5743 5742 5742 5742 5742 5741 5740 5739 5737 5735 5733 5731 5728 5725 5722 5718 5714 5710 5707 5705 5703 5702 5701 5701 5700 5699 5699 5700 5701 5702 5704 5706 5708 5710 5713 5715 5717 5719 5722 5724 5726 5727 5729 5731 5733 5735 5737 5739 5741 5743 5744 5746 5748 5749 5750 5752 5753 5755 5756 5758 5759 5760 5762 5763 5764 5765 5767 5768 5769 5770 5771 5772 5774 5775 5776 5777 5778 5779 5780 5781 5782 5783 5783 5784
5738 5739 5740 5741 5742 5742 5742 5742 5742 5741 5741 5740 5738 5737 5735 5733 5732 5729 5726 5722 5719 5716 5712 5709 5708 5706 5706 5705 5705 5704 5704 5704 5705 5706 5708 5710 5711 5713 5716 5718 5720 5722 5724 5726 5728 5730 5732 5733 5735 5736 5738 5739 5741 5743 5745 5746 5748 5749 5751 5752 5754 5755 5757 5758 5759 5760 5762 5763 5764 5765 5766 5767 5768 5769 5770 5771 5773 5774 5775 5776 5777 5778 5779 5780 5780 5781 5781 5782
5736 5737 5738 5739 5740 5741 5742 5742 5742 5742 5741 5741 5740 5738 5737 5735 5734 5732 5729 5727 5724 5721 5717 5714 5712 5711 5710 5709 5709 5709 5709 5709 5709 5710 5712 5713 5715 5716 5718 5720 5722 5724 5726 5728 5730 5732 5734 5735 5736 5738 5739 5740 5742 5743 5745 5747 5748 5750 5751 5753 5754 5755 5757 5758 5759 5760 5761 5762 5763 5764 5766 5767 5767 5768 5770 5771 5772 5773 5774 5775 5776 5777 5777 5778 5779 5779 5779 5780
5734 5735 5737 5738 5739 5740 5741 5741 5741 5741 5741 5741 5741 5740 5738 5737 5736 5735 5733 5730 5728 5725 5722 5719 5717 5715 5714 5714 5713 5713 5713 5713 5713 5714 5715 5717 5718 5719 5721 5723 5725 5727 5728 5730 5732 5734 5735 5737 5738 5739 5741 5742 5743 5745 5746 5748 5749 5750 5752 5753 5754 5755 5756 5758 5759 5760 5761 5762 5762 5764 5765 5766 5766 5768 5769 5771 5772 5772 5773 5774 5774 5775 5776 5776 5776 5777 5777 5777
5732 5733 5735 5736 5738 5739 5740 5740 5741 5741 5741 5741 5741 5741 5740 5739 5737 5737 5735 5734 5732 5729 5727 5724 5722 5720 5718 5717 5717 5717 5717 5717 5717 5718 5719 5720 5721 5722 5724 5725 5727 5729 5730 5732 5734 5735 5737 5738 5739 5741 5742 5743 5744 5746 5747 5748 5750 5751 5752 5753 5754 5755 5756 5757 5758 5759 5760 5761 5762 5763 5764 5765 5766 5767 5769 5769 5770 5771 5771 5772 5772 5773 5774 5774 5774 5774 5775 5774
5730 5731 5733 5734 5736 5737 5738 5739 5740 5740 5741 5741 5741 5741 5741 5740 5739 5738 5737 5736 5735 5733 5731 5729 5727 5724 5723 5721 5721 5720 5720 5720 5721 5721 5722 5723 5724 5725 5726 5728 5729 5731 5732 5734 5735 5736 5738 5739 5741 5742 5743 5744 5745 5746 5748 5749 5750 5751 5752 5753 5754 5755 5756 5757 5758 5759 5760 5761 5761 5762 5763 5763 5765 5766 5767 5767 5768 5769 5769 5770 5770 5771 5771 5772 5772 5772 5772 5771
5728 5729 5731 5732 5734 5735 5736 5738 5739 5740 5740 5741 5741 5742 5742 5741 5740 5739 5739 5738 5737 5736 5734 5733 5731 5729 5727 5726 5725 5724 5724 5724 5724 5725 5725 5726 5727 5728 5729 5730 5731 5733 5734 5735 5736 5738 5739 5740 5741 5742 5743 5744 5745 5747 5748 5749 5750 5751 5752 5753 5754 5755 5756 5757 5757 5758 5759 5760 5761 5761 5761 5762 5763 5764 5765 5766 5766 5767 5767 5767 5768 5768 5768 5769 5769 5769 5769 5768